NOAA 16 DEB, 41080

Orbit data source: Space-Track

NOAA 16 DEB, 41080 is space debris in SSO originally from a launch on Thu, 21 Sep 2000 UTC launched from the Air Force Western Test Range (AFWTR). Debris objects in space refer to the collection of defunct objects orbiting the Earth. Examples of debris include non-operational satellites, rocket bodies, and fragments generated from explosions, collisions, or faulty payload assembly.

Loading next visibility...
Identifier
41080, 2000-055AP
Orbit
SSO
Last TLE update
16 hours ago
Origin
Manufacturer
Unknown
Mission
Spacecraft
Bus & Motor
Unknown
Mass
Unknown
Launch date (UTC)
2000-09-21 (25 years ago)
Launch vehicle
Unknown
Launch site
Air Force Western Test Range (AFWTR)
Object type
Payload
Rocket body
Debris
Shape & HBR
Unknown
Radar Cross Section
Small (<0.1 m²)

Expand to show TLE details & history

TLE from 16 hours ago
0 NOAA 16 DEB
1 41080U 00055AP  25170.36941338 -.00000503  00000-0 -20825-3 0  9995
2 41080  98.5597 219.0992 0007052 190.8085 169.2942 14.22073534493296
Epoch: 2025-06-19T08:51Z
TLE epoch observation values (Epoch: 2025-06-19T08:51:57.316Z)
Latitude
-0.00006°
Longitude
178.27231°
Altitude
826.259 km
Speed
7.437 km/s
True Right ascension
14h 36m 23s
True Declination
0° 00' 00"
Sunlit
Object was in full shadow at epoch
Visualization orbit readout
Latitude
64.39347°
Longitude
17.11234°
Altitude
828.068 km
Speed
7.446 km/s
Apparent Right ascension
01h 08m 07s
Apparent Declination
19° 26' 45"
Sunlit
Object is in daylight
Visualization observer readout
Local Sidereal Time
11:29:26
Azimuth
333.953° NNW
Elevation
-26.335°
Doppler factor
1
Orbital elements
Apogee altitude
820.57 km
Perigee altitude
810.425 km
Semi-major axis
7,193.634 km
Eccentricity
0.00071
Inclination
98.5597°
RAAN
219.0992°
Arg. of periapsis
190.8085°
True anomaly
Unknown
Mean anomaly
169.2942°
Eccentric anomaly
Unknown
Mean motion
3.5573 °/min
Orbital period
101.2 mins
BSTAR
-0.00020825
Loading maneuver chart data...
Loading SW <> Apogee altitude chart data...
Loading historical data...
Loading historical data...
Loading historical data...
Loading historical data...
Loading historical data...
Loading historical data...
Loading historical data...

NOAA 16 DEB Visibility forecast

Observer location: undefined°, undefined°

Span
Click to sort rows by Start time (UTC) header in descending order
Start Az.
Max El. time (UTC)
Max El. Az.
Max El.
End time (UTC)
End Az.
6 mins2025-06-20 01:54:59.108Z100.262° ESE2025-06-20 01:57:59.108Z63.023° ENE17.649°2025-06-20 02:00:59.108Z25.596° NE
8 mins2025-06-20 03:33:59.108Z185.466° SSW2025-06-20 03:37:59.108Z279.415° WNW39.833°2025-06-20 03:41:59.108Z336.108° NNW
9 mins2025-06-20 15:50:59.108Z23.705° NE2025-06-20 15:54:59.108Z90.84° ESE40.9°2025-06-20 15:59:59.108Z180.372° SSW
5 mins2025-06-20 17:32:59.108Z320.87° NNW2025-06-20 17:34:59.108Z293.779° NW16.873°2025-06-20 17:37:59.108Z258.358° W
|